This is the latest recevied weather packets stored in our database for station/object WD9EKA. If no packets are shown the sender has not sent any weather packets the latest 10 day(s).
| Time | Temp. | Humidity | Pressure | Rain* | Wind** | Luminosity | Snow |
|---|---|---|---|---|---|---|---|
| 1778007573 | 10° C | 99% | 1004.5 hPa | 0 mm | - | - | - |
| 1778007253 | 10° C | 99% | 1004.6 hPa | 0 mm | - | - | - |
| 1778006614 | 10° C | 99% | 1004.4 hPa | 0 mm | - | - | - |
| 1778006254 | 10° C | 99% | 1004.3 hPa | 0 mm | - | - | - |
| 1778005941 | 10° C | 99% | 1004.3 hPa | 0 mm | - | - | - |
| 1778005621 | 10° C | 99% | 1004.2 hPa | 0 mm | - | - | - |
| 1778005301 | 10° C | 99% | 1004.3 hPa | 0 mm | - | - | - |
| 1778004994 | 10° C | 99% | 1004.2 hPa | 0 mm | - | - | - |
| 1778004634 | 10° C | 99% | 1004.4 hPa | 0 mm | - | - | - |
| 1778004274 | 9.44° C | 99% | 1004.2 hPa | 0 mm | - | - | - |
| 1778003913 | 10° C | 99% | 1004.3 hPa | 0 mm | - | - | - |
| 1778003553 | 10° C | 99% | 1004.5 hPa | 0 mm | - | - | - |
| 1778003194 | 9.44° C | 99% | 1004.4 hPa | 0 mm | - | - | - |
| 1778002885 | 9.44° C | 99% | 1004.3 hPa | 0 mm | - | - | - |
| 1778002566 | 9.44° C | 99% | 1004.4 hPa | 0 mm | - | - | - |
| 1778002245 | 9.44° C | 99% | 1004.5 hPa | 0 mm | - | - | - |
| 1778001874 | 10° C | 99% | 1004.3 hPa | 0.25 mm | - | - | - |
| 1778001557 | 10° C | 99% | 1004.3 hPa | 0.25 mm | - | - | - |
| 1778001237 | 10° C | 99% | 1004.2 hPa | 0.51 mm | - | - | - |
| 1778000914 | 10° C | 99% | 1004.1 hPa | 0.51 mm | - | - | - |
| 1778000245 | 9.44° C | 99% | 1003.5 hPa | 0.76 mm | - | - | - |
| 1777999605 | 9.44° C | 99% | 1003.7 hPa | 1.52 mm | - | - | - |
| 1777999293 | 9.44° C | 99% | 1003.7 hPa | 1.78 mm | - | - | - |
| 1777998981 | 9.44° C | 99% | 1004 hPa | 2.03 mm | - | - | - |
| 1777998661 | 8.89° C | 99% | 1003.9 hPa | 2.54 mm | - | - | - |
* Rain latest hour (hover to see other rain measurements)
** Current wind speed in m/s (hover to see current wind gust speed)